[TLELIST] Archives

 

Current TLEs

October 2nd 2006 PDT

HST 1 20580U 90037B 06273.81598957 +.00000360 +00000-0 +15188-4 0 07291 2 20580 028.4673 081.2861 0003763 221.6051 138.4252 15.00100496700973 ISS (ZARYA) 1 25544U 98067A 06275.48181713 .00021761 00000-0 13733-3 0 7831 2 25544 051.6376 354.7407 0012860 050.9711 139.6455 15.76471503450089 CXO 1 25867U 99040B 06273.54166667 +.00000434 +00000-0 +00000-0 0 09833 2 25867 060.3189 094.7443 5904704 288.8117 001.4504 00.37803892001276 ____________________________________________________________________ These 2-Line ...Continue Reading

Current TLEs

October 1st 2006 PDT

HST 1 20580U 90037B 06272.81801921 .00000399 00000-0 18195-4 0 7088 2 20580 028.4671 087.7928 0003771 211.3288 148.7075 15.00100309700827 ISS (ZARYA) 1 25544U 98067A 06274.32903458 .00016984 00000-0 10845-3 0 7776 2 25544 051.6376 000.6836 0012830 046.1444 077.7582 15.76409295449900 CXO 1 25867U 99040B 06273.54166667 +.00000434 +00000-0 +00000-0 0 09833 2 25867 060.3189 094.7443 5904704 288.8117 001.4504 00.37803892001276 ____________________________________________________________________ These 2-Line ...Continue Reading

Current TLEs

September 30th 2006 PDT

HST 1 20580U 90037B 06272.81801921 .00000399 00000-0 18195-4 0 7088 2 20580 028.4671 087.7928 0003771 211.3288 148.7075 15.00100309700827 ISS (ZARYA) 1 25544U 98067A 06273.49068287 .00035421 00000-0 22126-3 0 7700 2 25544 051.6371 005.0020 0012998 041.8842 001.1464 15.76400246449770 CXO 1 25867U 99040B 06270.83333333 +.00000428 +00000-0 +00000-0 0 09820 2 25867 060.3019 094.7866 5900634 288.8814 352.7115 00.37805263001262 ____________________________________________________________________ These 2-Line ...Continue Reading

Current TLEs

September 29th 2006 PDT

HST 1 20580U 90037B 06270.95514104 +.00000407 +00000-0 +18841-4 0 07252 2 20580 028.4671 099.9378 0003860 192.5608 167.4884 15.00099448700542 ISS (ZARYA) 1 25544U 98067A 06272.48767696 .00016594 00000-0 10666-3 0 7647 2 25544 051.6348 010.1665 0012691 035.3101 071.8415 15.76282030449614 CXO 1 25867U 99040B 06270.83333333 +.00000428 +00000-0 +00000-0 0 09820 2 25867 060.3019 094.7866 5900634 288.8814 352.7115 00.37805263001262 ____________________________________________________________________ These 2-Line ...Continue Reading

Current TLEs

September 28th 2006 PDT

HST 1 20580U 90037B 06269.95717016 +.00000404 +00000-0 +18581-4 0 07187 2 20580 028.4672 106.4443 0003930 183.2850 176.7717 15.00098967700390 ISS (ZARYA) 1 25544U 98067A 06271.40438817 .00014633 00000-0 94728-4 0 7585 2 25544 051.6377 015.7537 0013056 035.3857 040.4207 15.76237674449445 CXO 1 25867U 99040B 06270.83333333 +.00000428 +00000-0 +00000-0 0 09820 2 25867 060.3019 094.7866 5900634 288.8814 352.7115 00.37805263001262 ____________________________________________________________________ These 2-Line ...Continue Reading

Current TLEs

September 27th 2006 PDT

HST 1 20580U 90037B 06269.95717016 .00000404 00000-0 18581-4 0 7064 2 20580 028.4672 106.4443 0003930 183.2850 176.7717 15.00098967700390 ISS (ZARYA) 1 25544U 98067A 06270.45571568 .00009236 00000-0 61471-4 0 7515 2 25544 051.6376 020.6423 0012858 030.9054 058.1136 15.76202853449293 CXO 1 25867U 99040B 06268.20833333 +.00000402 +00000-0 +00000-0 0 09814 2 25867 060.2852 094.8224 5897464 288.9534 355.2941 00.37805466001250 ____________________________________________________________________ These 2-Line ...Continue Reading

Current TLEs

September 26th 2006 PDT

HST 1 20580U 90037B 06268.89266759 .00000417 00000-0 19599-4 0 7052 2 20580 028.4672 113.3841 0003914 172.7790 187.2856 15.00098526700232 ISS (ZARYA) 1 25544U 98067A 06269.31288222 .00021099 00000-0 13505-3 0 7447 2 25544 051.6364 026.5262 0012351 029.4714 050.3990 15.76180174449114 CXO 1 25867U 99040B 06268.20833333 +.00000402 +00000-0 +00000-0 0 09814 2 25867 060.2852 094.8224 5897464 288.9534 355.2941 00.37805466001250 ____________________________________________________________________ These 2-Line ...Continue Reading

Current TLEs

September 25th 2006 PDT

HST 1 20580U 90037B 06266.96325591 +.00000434 +00000-0 +20970-4 0 07276 2 20580 028.4672 125.9623 0003902 152.6617 207.4177 15.00097714699945 ISS (ZARYA) 1 25544U 98067A 06268.48219916 .00018093 00000-0 11671-3 0 7383 2 25544 051.6351 030.8063 0012129 024.0789 019.1283 15.76132271448980 CXO 1 25867U 99040B 06268.20833333 +.00000402 +00000-0 +00000-0 0 09814 2 25867 060.2852 094.8224 5897464 288.9534 355.2941 00.37805466001250 ____________________________________________________________________ These 2-Line ...Continue Reading

Current TLEs

September 24th 2006 PDT

HST 1 20580U 90037B 06267.02978737 .00000430 00000-0 20659-4 0 7045 2 20580 028.4672 125.5287 0003899 153.5196 206.5591 15.00097717699958 ISS (ZARYA) 1 25544U 98067A 06267.48021767 .00014751 00000-0 96175-4 0 7310 2 25544 051.6355 035.9687 0012136 021.7901 092.2791 15.76079899448825 CXO 1 25867U 99040B 06265.58333333 +.00000349 +00000-0 +00000-0 0 09806 2 25867 060.2701 094.8641 5895555 289.0209 357.8651 00.37805549001243 ____________________________________________________________________ These 2-Line ...Continue Reading

Current TLEs

September 23rd 2006 PDT

HST 1 20580U 90037B 06265.89875194 .00000473 00000-0 24023-4 0 7036 2 20580 028.4671 132.9025 0003903 142.7011 217.3851 15.00097367699782 ISS (ZARYA) 1 25544U 98067A 06266.51663859 .00016725 00000-0 10855-3 0 7253 2 25544 051.6357 040.9317 0012345 018.6328 024.5663 15.76057523448672 CXO 1 25867U 99040B 06262.91666667 +.00000000 +00000-0 +00000-0 0 09779 2 25867 060.1469 095.0161 5921760 288.9407 354.7078 00.37800346001237 ____________________________________________________________________ These 2-Line ...Continue Reading
  • This mailing list is a public mailing list - anyone may join or leave, at any time.
  • This mailing list is announce-only.

International Space Station (ISS) / Hubble Space Telescope (HST) / Chandra X-Ray Observatory Orbital Data via EMAIL

Privacy Policy:

Private list